Theta_e
315 314 315 315 314 314 316 317 318 318 317 317 318 317 318 317 316 317 319 321 323 324 324 324 327 331 328 330 331 333 333 333 333 336 335 337 337 336 335 336 334 333 332
316 316 316 316 315 313 314 317 317 317 317 318 318 317 317 318 318 318 318 316 317 318 320 322 321 321 319 323 325 330 338 337 335 335 337 336 337 336 336 335 334 334 333
317 317 317 317 315 314 314 315 316 316 316 317 316 317 316 316 315 316 316 315 315 315 315 314 321 325 323 318 328 326 331 330 330 334 335 338 336 336 335 335 334 334 333
315 316 317 317 316 315 315 315 316 316 315 315 315 315 315 315 315 316 315 315 313 315 314 315 314 326 328 322 322 330 334 333 332 337 337 338 335 334 336 336 335 333 332
315 315 316 317 316 316 315 316 316 317 316 316 315 314 313 313 313 313 312 312 311 311 312 314 314 315 327 326 328 331 335 340 341 338 337 335 333 335 335 335 334 331 331
313 314 314 314 315 317 316 317 317 316 315 314 313 313 313 313 313 311 309 309 308 309 309 316 315 312 318 325 327 331 334 340 339 337 335 333 333 335 334 335 332 331 332
310 310 312 313 313 314 315 316 315 314 313 313 313 313 312 311 310 309 308 308 310 311 319 316 315 313 315 326 323 330 335 339 337 336 334 333 332 333 336 333 331 331 331
309 309 310 309 311 312 313 313 313 313 313 312 312 311 311 310 310 309 308 312 316 319 319 317 315 320 320 324 324 332 337 337 336 334 331 331 331 333 332 331 331 330 330
306 306 307 308 309 309 310 312 313 313 313 312 312 312 311 310 309 308 307 313 318 318 317 316 318 325 324 323 323 335 335 335 332 328 327 328 331 333 332 330 328 329 329
305 305 305 306 306 307 308 310 312 313 313 313 312 310 310 309 309 308 307 312 316 317 317 316 319 324 323 322 330 334 335 334 329 327 327 331 332 333 331 329 328 328 329
305 305 305 305 305 306 306 307 308 311 312 312 311 310 310 309 308 307 307 313 321 320 318 315 315 323 322 326 333 334 334 332 331 331 332 331 330 331 330 328 327 326 326
304 304 304 304 305 305 305 306 307 307 309 311 310 310 310 309 308 308 308 313 319 317 318 315 314 321 322 330 333 333 330 329 329 330 331 329 328 328 328 327 326 324 324
303 305 304 304 304 305 306 307 308 307 307 307 309 311 310 308 308 308 310 310 315 317 317 315 314 319 322 330 332 330 327 327 330 332 330 329 328 328 327 326 327 326 327
302 302 303 303 304 305 306 308 308 308 309 310 310 309 309 309 309 310 310 311 315 317 316 315 313 318 322 332 329 327 327 330 330 329 329 328 328 327 326 326 327 327 327
300 303 303 303 304 305 305 307 309 309 309 309 309 310 309 309 310 310 310 311 315 315 313 313 314 319 326 330 327 328 327 331 329 328 328 326 326 326 326 326 326 327 326
301 301 302 304 305 305 306 307 307 308 309 310 310 309 310 310 310 311 313 311 313 314 315 315 317 321 331 328 328 328 329 330 328 328 325 325 326 325 324 325 325 325 325
299 302 305 304 305 307 307 307 307 307 308 309 310 310 311 312 311 312 314 315 316 316 316 322 320 332 330 326 323 325 328 328 328 326 325 326 325 325 325 325 325 324 323
301 302 304 305 307 307 307 307 307 308 309 310 310 311 311 312 312 313 314 316 316 314 319 324 329 328 324 324 322 327 328 327 326 326 326 326 326 326 325 324 324 323 322
303 303 304 305 306 307 307 308 308 309 309 310 311 311 312 313 313 317 318 318 314 314 322 325 329 326 324 325 329 327 325 326 325 325 327 327 326 325 325 325 324 322 322
303 304 305 306 307 307 308 308 309 309 310 311 311 312 312 313 314 315 314 314 314 321 324 326 329 329 328 328 326 325 326 325 325 326 326 326 325 323 323 323 323 322 322
304 305 305 306 307 309 310 311 311 311 311 313 313 313 313 313 313 313 312 313 319 324 326 327 329 327 327 325 324 325 325 326 325 324 323 323 323 322 323 323 323 323 324
306 306 306 307 308 308 311 312 312 313 315 314 315 316 317 318 314 313 314 322 326 326 327 328 329 327 325 324 325 325 325 324 324 323 323 323 323 324 324 324 324 324 324
313 311 311 311 312 312 313 315 317 317 318 320 319 320 321 321 320 320 324 327 326 322 325 328 326 325 324 325 325 324 323 323 323 322 323 324 323 323 324 324 324 322 322
319 318 317 316 315 316 317 319 319 321 322 321 322 324 324 325 326 326 326 326 326 326 326 324 324 325 325 324 324 322 322 321 322 321 322 321 321 322 323 323 323 322 321
323 323 322 321 321 321 322 320 321 321 321 323 325 325 325 326 325 327 327 327 326 325 325 325 325 325 324 324 322 321 321 321 322 322 321 321 321 322 324 324 323 321 320
323 324 323 321 321 320 321 321 321 322 323 323 323 324 327 327 327 326 326 326 326 325 325 326 326 325 324 323 322 322 321 321 321 321 322 322 323 323 323 323 321 317 315
Wind_Speed
17 16 16 14 9 14 14 13 15 15 13 12 12 11 9 6 4 5 9 12 16 18 20 24 26 30 31 28 26 26 21 21 23 22 30 32 23 20 16 15 14 12 11
23 23 21 19 16 16 17 15 14 14 12 9 9 8 8 6 4 5 6 9 12 15 21 24 28 27 28 24 25 26 21 18 27 26 31 26 22 17 15 15 15 14 11
30 29 27 25 24 22 20 18 18 17 15 13 11 9 7 7 9 11 13 16 20 20 21 23 25 24 27 25 20 25 23 31 29 28 29 25 20 17 17 16 16 15 13
18 27 32 32 30 28 25 24 22 21 18 15 12 11 11 11 13 16 18 21 25 26 26 25 25 24 23 24 22 24 26 25 29 28 27 23 21 19 16 17 17 15 13
16 15 24 37 36 34 32 29 29 26 24 21 18 16 16 18 20 23 25 29 32 34 32 31 28 27 25 23 24 25 26 26 25 25 25 23 20 21 19 18 15 13 14
16 20 17 16 22 32 37 33 31 28 25 23 21 22 23 25 26 27 27 31 34 36 32 29 31 28 27 26 26 23 22 26 26 25 24 21 20 19 18 17 15 14 15
27 23 24 24 21 21 25 30 31 28 25 25 26 28 28 27 25 26 29 28 28 23 22 27 32 28 24 26 28 24 22 22 22 19 16 14 16 17 15 13 14 13 15
40 38 34 31 29 30 30 33 33 32 32 32 33 30 29 28 29 31 31 24 24 23 23 26 29 26 25 26 25 25 24 19 17 12 11 10 15 15 11 10 9 10 13
48 46 45 42 38 35 35 38 38 36 36 34 32 31 31 32 32 33 30 25 24 24 22 25 25 26 26 26 23 26 21 14 14 11 12 19 21 13 11 11 14 14 14
47 45 44 49 48 45 41 37 34 37 38 35 33 34 35 34 34 35 31 28 26 24 23 25 24 26 26 24 23 23 17 16 15 13 11 19 16 12 13 13 12 11 14
57 50 46 45 48 48 45 45 44 39 36 39 39 36 37 39 39 37 29 28 24 22 22 27 26 25 23 21 21 18 17 15 12 9 11 14 14 13 13 12 10 8 6
51 50 47 42 44 45 44 44 46 45 46 43 41 41 40 40 39 35 29 31 27 25 24 28 28 26 22 20 17 15 13 10 10 12 13 14 13 12 12 12 11 9 8
47 43 46 40 38 36 34 38 43 45 43 46 44 40 39 44 38 31 28 31 29 26 25 28 28 26 23 19 17 15 12 12 13 14 13 14 12 12 13 12 11 10 9
44 46 43 39 39 36 37 35 41 40 40 41 40 42 41 37 33 32 29 28 28 26 27 29 27 26 23 17 21 17 18 16 16 13 13 13 14 13 13 11 12 12 11
40 41 40 38 38 36 36 35 37 38 38 37 39 38 36 35 32 25 25 30 28 26 25 27 25 26 19 23 20 16 18 20 15 15 14 14 13 13 13 13 13 13 11
31 34 33 31 31 33 33 34 36 34 33 35 36 33 29 28 24 23 23 29 25 22 24 24 24 23 21 27 20 19 19 20 18 17 17 13 14 15 15 14 13 11 10
25 26 27 30 29 31 33 30 29 28 27 25 25 25 27 24 23 23 19 18 21 20 23 22 22 22 29 30 23 21 22 21 19 19 18 15 15 15 15 13 12 11 10
19 23 26 26 21 24 24 26 25 25 28 28 28 28 27 26 25 23 22 22 23 23 22 22 23 34 34 25 27 22 23 22 21 20 19 19 17 16 15 13 12 9 7
19 21 20 20 22 23 21 21 23 24 25 26 25 27 28 26 25 25 24 25 24 23 25 25 29 36 32 24 23 23 22 23 22 21 21 19 17 14 12 12 10 9 7
16 17 18 18 18 19 20 21 21 22 24 25 25 25 24 27 30 29 27 26 22 21 27 30 33 34 28 26 26 24 25 22 20 20 20 18 15 11 11 13 12 10 8
17 16 16 18 18 16 16 17 18 19 20 20 20 21 22 24 26 26 24 23 24 24 30 31 32 23 27 26 25 26 25 22 20 19 17 16 15 15 14 13 12 10 8
15 15 16 15 14 14 14 14 16 17 19 18 15 15 17 21 26 25 24 26 24 24 24 22 26 25 26 26 26 26 24 22 21 18 16 16 15 14 13 12 12 11 10
10 12 15 17 16 14 13 13 12 10 11 12 11 14 19 18 22 25 28 26 26 22 28 22 25 27 26 24 22 22 21 19 20 19 16 16 16 14 13 13 13 12 10
7 11 10 15 16 16 13 10 12 10 8 11 14 21 26 31 34 31 27 25 29 30 27 28 29 28 26 25 23 22 20 19 18 16 15 15 15 14 14 14 15 14 13
18 18 17 14 15 17 14 13 12 12 14 15 19 18 27 23 27 24 27 28 28 30 31 30 29 26 25 24 24 21 19 18 17 18 16 15 16 14 14 15 16 14 11
15 17 16 19 19 17 18 18 20 21 18 15 14 13 19 22 26 26 27 28 28 28 29 28 27 24 22 21 20 19 18 17 16 16 15 14 15 17 17 15 14 12 11
Wind_Direction
205 208 209 218 232 233 230 223 214 202 190 187 189 190 186 182 205 251 260 259 259 264 268 271 270 273 284 285 296 282 273 272 281 293 284 288 286 281 268 272 264 245 259
217 223 229 226 220 222 220 217 210 210 215 216 211 200 200 209 251 286 302 289 285 290 284 287 282 284 292 290 290 290 289 290 295 286 286 288 288 271 257 255 253 246 264
250 237 231 227 224 220 220 224 226 231 233 234 220 225 237 261 281 286 293 295 293 295 300 296 292 295 292 289 291 295 293 288 280 282 285 283 271 257 258 256 254 253 263
258 247 243 230 229 226 225 227 237 240 238 233 237 246 252 264 279 280 284 288 293 292 296 299 292 291 295 293 291 287 286 277 281 278 277 269 260 263 257 251 258 255 266
249 255 252 241 240 234 229 235 245 240 234 233 239 249 257 266 274 283 280 280 284 284 287 293 293 287 287 285 283 287 294 289 288 285 272 259 254 258 261 255 255 253 264
246 236 239 251 249 244 242 241 234 231 231 239 247 261 268 272 276 281 289 292 287 281 278 280 288 287 278 278 277 278 288 287 282 282 275 259 261 264 266 255 248 250 261
269 257 239 240 241 245 242 234 232 235 244 252 259 266 272 277 283 292 301 293 285 272 266 282 288 287 281 279 275 286 280 274 266 273 272 279 297 280 260 243 242 256 262
273 270 262 253 244 240 238 242 247 249 251 258 261 265 273 279 287 298 304 279 268 264 271 280 288 284 281 281 282 287 282 271 248 236 258 276 278 257 231 233 252 252 248
272 272 268 264 258 251 249 245 245 248 250 250 259 268 275 280 289 296 299 267 260 261 269 280 281 279 282 281 276 283 276 244 208 221 247 267 263 238 232 236 242 240 243
265 266 265 265 262 258 251 246 246 243 243 249 255 265 272 278 286 292 293 262 262 262 265 277 274 278 281 284 275 272 248 210 206 221 250 257 243 228 235 237 234 244 241
261 260 255 252 254 253 253 252 247 243 242 247 257 264 268 274 282 289 279 247 249 254 264 275 273 278 284 277 267 254 239 217 207 226 238 226 233 231 228 226 223 217 185
256 248 244 241 248 248 246 246 248 246 242 246 253 257 260 271 282 276 265 238 240 254 261 273 274 280 286 281 242 225 227 234 241 240 216 224 224 219 212 208 202 197 211
243 241 237 239 241 238 241 232 229 237 242 246 248 248 262 273 271 257 253 237 240 249 259 273 273 277 284 278 215 204 237 246 254 223 220 216 216 214 204 199 202 204 195
239 237 236 236 233 232 228 229 230 229 226 231 239 252 258 259 252 249 246 235 232 242 256 269 271 271 273 236 204 226 232 249 230 228 219 215 207 195 189 190 187 174 165
232 222 228 230 221 224 229 222 224 227 228 234 235 241 250 248 250 245 245 228 224 242 259 263 259 261 258 203 207 220 232 228 215 210 203 196 185 181 174 176 176 176 165
210 224 221 200 209 217 219 219 227 234 232 233 241 245 244 249 240 238 241 224 233 245 256 249 248 250 213 196 199 212 225 213 209 198 183 179 173 169 171 169 167 159 152
203 199 189 202 207 206 205 212 218 226 229 228 228 231 230 229 235 234 227 221 232 241 247 240 242 216 188 192 191 211 227 205 200 190 182 180 178 172 166 153 148 148 151
180 190 193 196 192 200 213 216 216 216 219 225 223 225 228 228 225 221 220 222 231 239 239 231 220 188 187 197 203 209 197 193 187 183 177 176 179 176 165 156 155 157 173
168 179 190 199 203 209 212 208 211 221 226 230 230 227 223 224 219 214 214 225 237 242 225 219 204 188 205 211 204 189 189 183 182 180 175 179 179 173 170 167 168 173 185
174 184 192 192 196 206 212 215 216 221 222 227 231 226 218 211 212 213 214 224 240 233 215 208 204 200 205 196 184 181 178 178 178 176 176 175 171 172 174 179 177 182 182
169 177 186 193 197 199 204 208 218 226 228 229 226 215 210 211 212 214 220 223 223 212 206 203 197 198 186 178 177 175 176 175 168 161 165 169 171 169 166 164 178 185 189
168 179 183 193 202 205 198 205 222 225 228 230 229 229 224 225 219 213 206 208 200 194 180 193 189 180 177 175 170 170 168 166 161 167 168 169 165 165 167 169 168 171 169
154 169 171 171 177 185 199 197 211 206 215 235 230 190 167 173 177 182 184 177 161 178 178 181 170 169 165 164 166 166 162 166 169 172 169 163 160 165 165 165 164 153 149
142 158 162 189 185 180 189 209 204 215 190 157 153 149 155 159 164 162 165 161 161 158 163 163 160 155 156 155 153 155 158 163 163 168 173 173 170 169 167 164 157 144 145
118 114 136 165 173 189 190 171 174 160 154 155 155 142 157 155 159 156 152 152 149 150 151 153 153 151 152 156 157 155 162 165 166 166 170 176 176 174 173 170 164 154 146
106 113 123 134 140 144 149 152 152 148 140 145 147 139 152 144 143 146 147 149 150 149 153 156 153 153 153 155 157 160 164 166 170 172 168 174 175 168 164 159 157 154 147